Location: Bazugues
(43.4465°N, 0.3432°E)
Time: 20:34:18
(UTC+00:00)

Cosmos 2341 Rocket - Pass Details

Date: 12 January 2026
Orbit: 967 x 1004 km, 82.9° (Epoch: 13 February)

Event Time Altitude Azimuth Distance (km) Brightness Sun altitude
Rises 17:55:31 0° 352° (N) 3,725 6.9 -12.6°
Reaches altitude 10° 17:58:04 10° 354° (N) 2,767 6.3 -13.1°
Maximum altitude 18:04:27 82° 82° (E) 1,001 4.0 -14.2°
Drops below altitude 10° 18:10:42 10° 170° (S) 2,722 6.4 -15.3°
Sets 18:13:11 0° 172° (S) 3,661 7.1 -15.7°
